Powrót do katalogu

STARLINK-32611

AktywnyŁącznośćVLEO
NORAD 61976·PAYLOAD·🇺🇸 United States

Wystrzelony Nov 14, 2024 z Cape Canaveral Space Force Station

Loading…

Następne Przeloty (najbliższe 24 godziny)

TLE

ŚwieżeSource: CelesTrak SupGP

Epoka: Sep 15, 2026, 02:18 UTC

1 61976C 24210T   26258.09631944 -.00059911  00000+0 -21703-2 0  2586
2 61976  43.0028 190.1443 0001432 274.6646 219.5238 15.27603291    12

Śledź STARLINK-32611 w czasie rzeczywistym z AllMySat

Download on the App Store